AAL1376 KPHX-KLAX

Flight info

Callsign AAL1376
Flight time 0h 59m
Altitude 38000
Route KEENS3 WLVRN ESTWD HLYWD1
Aircraft B77W/H-SDE1E2E3FGHIJ2J3J4J5M1RWXY/LB1D1

Departure

Time 2026-04-26 11:54
Airport Phoenix Sky Harbor International Airport (KPHX)

Arrival

Time 2026-04-26 12:54
Airport Los Angeles International Airport (KLAX)
Time Latitude Longitude Altitude Speed Heading
2026-04-26 11:21 33.43795 -111.99353 1148 ft 0 kts 248°
2026-04-26 11:43 33.43799 -111.99341 1148 ft 2 kts 248°
2026-04-26 11:44 33.43804 -111.99325 1148 ft 2 kts 249°
2026-04-26 11:44 33.43808 -111.99307 1148 ft 2 kts 268°
2026-04-26 11:44 33.43807 -111.99290 1148 ft 2 kts 283°
2026-04-26 11:44 33.43805 -111.99279 1148 ft 1 kts 287°
2026-04-26 11:45 33.43802 -111.99262 1148 ft 2 kts 259°
2026-04-26 11:45 33.43808 -111.99246 1148 ft 2 kts 233°
2026-04-26 11:45 33.43818 -111.99233 1148 ft 2 kts 209°
2026-04-26 11:45 33.43832 -111.99228 1148 ft 1 kts 185°
2026-04-26 11:46 33.43834 -111.99227 1148 ft 1 kts 181°
2026-04-26 11:46 33.43802 -111.99229 1148 ft 6 kts 180°
2026-04-26 11:46 33.43771 -111.99229 1148 ft 1 kts 180°
2026-04-26 11:46 33.43768 -111.99229 1148 ft 0 kts 180°
2026-04-26 11:48 33.43767 -111.99229 1148 ft 0 kts 180°
2026-04-26 11:48 33.43755 -111.99229 1148 ft 3 kts 180°
2026-04-26 11:49 33.43715 -111.99229 1148 ft 7 kts 180°
2026-04-26 11:49 33.43653 -111.99228 1148 ft 10 kts 180°
2026-04-26 11:49 33.43578 -111.99228 1148 ft 10 kts 180°
2026-04-26 11:49 33.43503 -111.99229 1148 ft 10 kts 180°
2026-04-26 11:50 33.43427 -111.99229 1148 ft 10 kts 180°
2026-04-26 11:50 33.43352 -111.99229 1148 ft 9 kts 180°
2026-04-26 11:50 33.43289 -111.99229 1148 ft 7 kts 180°
2026-04-26 11:50 33.43240 -111.99237 1148 ft 7 kts 205°
2026-04-26 11:51 33.43211 -111.99262 1148 ft 0 kts 221°
2026-04-26 11:52 33.43198 -111.99276 1148 ft 4 kts 223°
2026-04-26 11:52 33.43167 -111.99309 1148 ft 7 kts 223°
2026-04-26 11:53 33.43130 -111.99344 1148 ft 4 kts 206°
2026-04-26 11:53 33.43113 -111.99358 1148 ft 2 kts 231°
2026-04-26 11:53 33.43104 -111.99380 1148 ft 5 kts 256°
2026-04-26 11:54 33.43104 -112.00280 1148 ft 131 kts 270°
2026-04-26 11:54 33.43104 -112.01611 1440 ft 174 kts 270°
2026-04-26 11:54 33.43064 -112.02985 2524 ft 169 kts 269°
2026-04-26 11:54 33.43023 -112.04370 3250 ft 177 kts 266°
2026-04-26 11:55 33.42831 -112.05859 3876 ft 192 kts 252°
2026-04-26 11:55 33.42381 -112.07438 4545 ft 209 kts 251°
2026-04-26 11:55 33.41902 -112.09158 5203 ft 228 kts 252°
2026-04-26 11:55 33.41419 -112.10965 6097 ft 237 kts 252°
2026-04-26 11:56 33.40899 -112.12891 6832 ft 253 kts 251°
2026-04-26 11:56 33.40347 -112.14912 7762 ft 260 kts 250°
2026-04-26 11:56 33.39799 -112.16933 8875 ft 260 kts 250°
2026-04-26 11:56 33.39287 -112.18974 10016 ft 261 kts 256°
2026-04-26 11:57 33.39157 -112.21156 10840 ft 276 kts 266°
2026-04-26 11:57 33.39408 -112.23493 11529 ft 296 kts 277°
2026-04-26 11:57 33.39882 -112.25948 12230 ft 313 kts 277°
2026-04-26 11:57 33.40335 -112.28567 13010 ft 327 kts 276°
2026-04-26 11:58 33.40760 -112.31284 13772 ft 343 kts 275°
2026-04-26 11:58 33.41187 -112.34132 14626 ft 356 kts 275°
2026-04-26 11:58 33.41621 -112.37060 15620 ft 365 kts 275°
2026-04-26 11:58 33.42062 -112.40025 16871 ft 366 kts 275°
2026-04-26 11:59 33.42500 -112.42976 18146 ft 365 kts 275°
2026-04-26 11:59 33.42939 -112.45944 19351 ft 367 kts 274°
2026-04-26 11:59 33.43380 -112.48945 20481 ft 369 kts 274°
2026-04-26 11:59 33.43819 -112.51932 21579 ft 371 kts 273°
2026-04-26 12:00 33.44261 -112.54950 22572 ft 374 kts 273°
2026-04-26 12:00 33.44710 -112.58016 23585 ft 377 kts 272°
2026-04-26 12:00 33.45015 -112.61079 24549 ft 374 kts 267°
2026-04-26 12:00 33.45077 -112.64208 25423 ft 378 kts 265°
2026-04-26 12:01 33.45117 -112.67326 26363 ft 380 kts 265°
2026-04-26 12:01 33.45157 -112.70458 27419 ft 380 kts 264°
2026-04-26 12:01 33.45197 -112.73637 28330 ft 383 kts 264°
2026-04-26 12:01 33.45286 -112.76840 29107 ft 391 kts 268°
2026-04-26 12:02 33.45668 -112.80055 29842 ft 402 kts 274°
2026-04-26 12:02 33.46410 -112.83329 30555 ft 414 kts 279°
2026-04-26 12:02 33.47463 -112.86535 31331 ft 419 kts 283°
2026-04-26 12:02 33.48596 -112.89762 32253 ft 416 kts 283°
2026-04-26 12:03 33.49694 -112.92878 33166 ft 411 kts 283°
2026-04-26 12:03 33.50804 -112.96035 34011 ft 407 kts 283°
2026-04-26 12:03 33.51879 -112.99098 34735 ft 404 kts 283°
2026-04-26 12:03 33.52970 -113.02210 35325 ft 404 kts 283°
2026-04-26 12:04 33.54058 -113.05321 35896 ft 405 kts 283°
2026-04-26 12:04 33.55148 -113.08440 36484 ft 407 kts 283°
2026-04-26 12:04 33.56234 -113.11552 37040 ft 408 kts 283°
2026-04-26 12:04 33.57336 -113.14712 37583 ft 408 kts 283°
2026-04-26 12:05 33.58421 -113.17821 38078 ft 407 kts 284°
2026-04-26 12:05 33.59520 -113.20978 38486 ft 408 kts 284°
2026-04-26 12:05 33.60619 -113.24139 38864 ft 409 kts 284°
2026-04-26 12:05 33.61707 -113.27270 39223 ft 410 kts 284°
2026-04-26 12:06 33.62802 -113.30424 39534 ft 411 kts 284°
2026-04-26 12:06 33.63905 -113.33605 39816 ft 413 kts 285°
2026-04-26 12:06 33.65022 -113.36834 39810 ft 418 kts 285°
2026-04-26 12:07 33.67237 -113.43237 39811 ft 418 kts 285°
2026-04-26 12:07 33.69480 -113.49734 39831 ft 423 kts 285°
2026-04-26 12:08 33.71719 -113.56227 39806 ft 421 kts 285°
2026-04-26 12:08 33.73952 -113.62718 39799 ft 421 kts 285°
2026-04-26 12:09 33.76182 -113.69217 39824 ft 423 kts 284°
2026-04-26 12:09 33.78421 -113.75752 39833 ft 422 kts 285°
2026-04-26 12:10 33.80653 -113.82281 39825 ft 422 kts 285°
2026-04-26 12:10 33.82867 -113.88787 39839 ft 424 kts 284°
2026-04-26 12:11 33.85101 -113.95366 39825 ft 426 kts 285°
2026-04-26 12:11 33.87335 -114.01955 39821 ft 423 kts 285°
2026-04-26 12:12 33.89532 -114.08452 39823 ft 425 kts 285°
2026-04-26 12:12 33.91172 -114.15185 39820 ft 417 kts 276°
2026-04-26 12:13 33.92331 -114.21999 39803 ft 416 kts 276°
2026-04-26 12:13 33.93481 -114.28794 39814 ft 417 kts 276°
2026-04-26 12:14 33.94638 -114.35640 39806 ft 416 kts 276°
2026-04-26 12:14 33.95784 -114.42451 39783 ft 416 kts 276°
2026-04-26 12:15 33.96928 -114.49276 39804 ft 418 kts 276°
2026-04-26 12:15 33.98075 -114.56131 39794 ft 418 kts 276°
2026-04-26 12:16 33.99222 -114.63021 39816 ft 420 kts 276°
2026-04-26 12:16 34.00371 -114.69936 39816 ft 420 kts 276°
2026-04-26 12:17 34.01504 -114.76785 39815 ft 417 kts 276°
2026-04-26 12:17 34.02640 -114.83684 39815 ft 422 kts 276°
2026-04-26 12:18 34.03774 -114.90582 39815 ft 419 kts 275°
2026-04-26 12:18 34.04896 -114.97442 39814 ft 421 kts 276°
2026-04-26 12:19 34.06024 -115.04356 39812 ft 420 kts 276°
2026-04-26 12:19 34.07150 -115.11271 39823 ft 422 kts 276°
2026-04-26 12:20 34.08270 -115.18169 39820 ft 421 kts 276°
2026-04-26 12:20 34.09396 -115.25133 39832 ft 423 kts 276°
2026-04-26 12:21 34.10513 -115.32067 39824 ft 421 kts 276°
2026-04-26 12:21 34.11630 -115.39030 39824 ft 425 kts 276°
2026-04-26 12:22 34.12750 -115.46030 39822 ft 424 kts 276°
2026-04-26 12:22 34.13864 -115.53034 39828 ft 424 kts 276°
2026-04-26 12:23 34.14970 -115.59998 39825 ft 422 kts 276°
2026-04-26 12:23 34.16002 -115.66916 39192 ft 413 kts 271°
2026-04-26 12:23 34.16142 -115.70316 38492 ft 407 kts 264°
2026-04-26 12:24 34.15934 -115.73672 37840 ft 403 kts 261°
2026-04-26 12:24 34.15614 -115.77024 37180 ft 401 kts 260°
2026-04-26 12:24 34.15290 -115.80371 36517 ft 399 kts 261°
2026-04-26 12:25 34.14654 -115.86929 35244 ft 395 kts 260°
2026-04-26 12:25 34.14333 -115.90223 34655 ft 394 kts 261°
2026-04-26 12:25 34.14015 -115.93475 33922 ft 395 kts 261°
2026-04-26 12:25 34.13693 -115.96767 33156 ft 396 kts 260°
2026-04-26 12:26 34.13369 -116.00066 32426 ft 395 kts 261°
2026-04-26 12:26 34.13053 -116.03303 31671 ft 395 kts 260°
2026-04-26 12:26 34.12729 -116.06606 30894 ft 395 kts 261°
2026-04-26 12:26 34.12406 -116.09898 30307 ft 390 kts 260°
2026-04-26 12:27 34.12091 -116.13105 29878 ft 382 kts 261°
2026-04-26 12:27 34.11782 -116.16235 29422 ft 388 kts 261°
2026-04-26 12:27 34.11453 -116.19532 28929 ft 399 kts 261°
2026-04-26 12:27 34.11122 -116.22860 28417 ft 397 kts 262°
2026-04-26 12:28 34.10798 -116.26128 27917 ft 395 kts 261°
2026-04-26 12:28 34.10469 -116.29414 27418 ft 394 kts 262°
2026-04-26 12:28 34.10134 -116.32668 26919 ft 392 kts 261°
2026-04-26 12:28 34.09786 -116.35922 26411 ft 391 kts 261°
2026-04-26 12:29 34.09439 -116.39152 25906 ft 389 kts 261°
2026-04-26 12:29 34.09097 -116.42341 25404 ft 387 kts 262°
2026-04-26 12:29 34.08406 -116.48756 24381 ft 384 kts 262°
2026-04-26 12:30 34.08069 -116.51885 24079 ft 373 kts 262°
2026-04-26 12:30 34.07742 -116.54914 24005 ft 356 kts 262°
2026-04-26 12:30 34.07429 -116.57793 23886 ft 341 kts 263°
2026-04-26 12:31 34.06879 -116.63420 23124 ft 345 kts 263°
2026-04-26 12:31 34.06621 -116.66280 22584 ft 343 kts 263°
2026-04-26 12:31 34.06363 -116.69105 22114 ft 339 kts 263°
2026-04-26 12:31 34.06103 -116.71915 21648 ft 336 kts 263°
2026-04-26 12:32 34.05843 -116.74712 21182 ft 335 kts 263°
2026-04-26 12:32 34.05584 -116.77477 20722 ft 333 kts 263°
2026-04-26 12:32 34.05067 -116.82983 19814 ft 329 kts 263°
2026-04-26 12:33 34.04812 -116.85691 19367 ft 326 kts 263°
2026-04-26 12:33 34.04560 -116.88366 18925 ft 325 kts 263°
2026-04-26 12:33 34.04262 -116.91074 18517 ft 322 kts 261°
2026-04-26 12:33 34.03905 -116.93715 18173 ft 320 kts 261°
2026-04-26 12:34 34.03547 -116.96375 17819 ft 319 kts 261°
2026-04-26 12:34 34.03204 -116.98977 17467 ft 318 kts 262°
2026-04-26 12:34 34.02864 -117.01585 17115 ft 317 kts 261°
2026-04-26 12:34 34.02523 -117.04227 16770 ft 315 kts 262°
2026-04-26 12:35 34.02216 -117.06842 16540 ft 315 kts 262°
2026-04-26 12:35 34.01913 -117.09448 16309 ft 315 kts 262°
2026-04-26 12:35 34.01608 -117.12038 16054 ft 313 kts 262°
2026-04-26 12:35 34.01300 -117.14639 15793 ft 314 kts 262°
2026-04-26 12:36 34.00993 -117.17217 15533 ft 312 kts 262°
2026-04-26 12:36 34.00687 -117.19792 15271 ft 310 kts 262°
2026-04-26 12:36 34.00380 -117.22363 15013 ft 310 kts 262°
2026-04-26 12:36 34.00073 -117.24922 14725 ft 310 kts 262°
2026-04-26 12:37 33.99766 -117.27481 14390 ft 308 kts 262°
2026-04-26 12:37 33.99457 -117.30057 14058 ft 306 kts 262°
2026-04-26 12:37 33.99189 -117.32305 13788 ft 306 kts 262°
2026-04-26 12:37 33.98893 -117.34833 13523 ft 305 kts 262°
2026-04-26 12:38 33.98597 -117.37358 13252 ft 304 kts 262°
2026-04-26 12:38 33.98302 -117.39870 12976 ft 305 kts 262°
2026-04-26 12:38 33.98006 -117.42381 12696 ft 306 kts 262°
2026-04-26 12:38 33.97707 -117.44910 12411 ft 300 kts 262°
2026-04-26 12:39 33.97424 -117.47353 12134 ft 293 kts 264°
2026-04-26 12:39 33.97491 -117.49795 11961 ft 303 kts 277°
2026-04-26 12:39 33.97965 -117.52217 11931 ft 289 kts 284°
2026-04-26 12:39 33.98538 -117.54474 11892 ft 274 kts 285°
2026-04-26 12:40 33.99065 -117.56593 11789 ft 262 kts 284°
2026-04-26 12:40 33.99572 -117.58707 11469 ft 259 kts 284°
2026-04-26 12:40 34.00059 -117.60765 11121 ft 254 kts 284°
2026-04-26 12:40 34.00545 -117.62824 10770 ft 250 kts 284°
2026-04-26 12:41 34.01014 -117.64815 10512 ft 244 kts 284°
2026-04-26 12:41 34.01466 -117.66737 10307 ft 237 kts 284°
2026-04-26 12:41 34.01913 -117.68636 10112 ft 231 kts 284°
2026-04-26 12:41 34.02095 -117.70510 9915 ft 224 kts 267°
2026-04-26 12:42 34.01958 -117.72367 9655 ft 222 kts 264°
2026-04-26 12:42 34.01781 -117.74210 9380 ft 220 kts 264°
2026-04-26 12:42 34.01604 -117.76033 9121 ft 218 kts 263°
2026-04-26 12:42 34.01429 -117.77825 8875 ft 216 kts 264°
2026-04-26 12:43 34.01253 -117.79635 8678 ft 217 kts 264°
2026-04-26 12:43 34.01079 -117.81428 8479 ft 217 kts 264°
2026-04-26 12:43 34.00902 -117.83240 8270 ft 215 kts 264°
2026-04-26 12:43 34.00730 -117.85003 8070 ft 214 kts 264°
2026-04-26 12:44 34.00557 -117.86774 7881 ft 209 kts 264°
2026-04-26 12:44 34.00389 -117.88477 7715 ft 203 kts 264°
2026-04-26 12:44 34.00225 -117.90156 7525 ft 197 kts 264°
2026-04-26 12:44 34.00067 -117.91761 7351 ft 191 kts 264°
2026-04-26 12:45 33.99914 -117.93327 7185 ft 185 kts 264°
2026-04-26 12:45 33.99765 -117.94846 7022 ft 181 kts 264°
2026-04-26 12:45 33.99619 -117.96343 6861 ft 180 kts 264°
2026-04-26 12:45 33.99471 -117.97849 6699 ft 180 kts 264°
2026-04-26 12:46 33.99320 -117.99342 6551 ft 180 kts 264°
2026-04-26 12:46 33.99174 -118.00837 6447 ft 180 kts 264°
2026-04-26 12:46 33.99030 -118.02340 6332 ft 181 kts 265°
2026-04-26 12:46 33.98885 -118.03856 6097 ft 181 kts 265°
2026-04-26 12:47 33.98741 -118.05349 5872 ft 179 kts 265°
2026-04-26 12:47 33.98596 -118.06834 5647 ft 179 kts 265°
2026-04-26 12:47 33.98447 -118.08330 5417 ft 179 kts 264°
2026-04-26 12:47 33.98300 -118.09802 5190 ft 178 kts 264°
2026-04-26 12:48 33.98151 -118.11292 4957 ft 178 kts 264°
2026-04-26 12:48 33.98004 -118.12752 4726 ft 177 kts 264°
2026-04-26 12:48 33.97855 -118.14236 4491 ft 177 kts 264°
2026-04-26 12:48 33.97707 -118.15707 4255 ft 177 kts 264°
2026-04-26 12:49 33.97559 -118.17176 4019 ft 177 kts 264°
2026-04-26 12:49 33.97411 -118.18644 3780 ft 177 kts 264°
2026-04-26 12:49 33.97262 -118.20111 3541 ft 176 kts 264°
2026-04-26 12:49 33.97114 -118.21572 3303 ft 174 kts 264°
2026-04-26 12:50 33.96970 -118.22993 3067 ft 170 kts 264°
2026-04-26 12:50 33.96828 -118.24393 2836 ft 167 kts 264°
2026-04-26 12:50 33.96687 -118.25782 2604 ft 164 kts 265°
2026-04-26 12:50 33.96550 -118.27123 2379 ft 161 kts 264°
2026-04-26 12:51 33.96415 -118.28450 2154 ft 159 kts 264°
2026-04-26 12:51 33.96280 -118.29770 1930 ft 157 kts 264°
2026-04-26 12:51 33.96149 -118.31055 1709 ft 152 kts 264°
2026-04-26 12:51 33.96023 -118.32285 1501 ft 146 kts 264°
2026-04-26 12:52 33.95902 -118.33469 1305 ft 142 kts 264°
2026-04-26 12:52 33.95782 -118.34635 1105 ft 140 kts 264°
2026-04-26 12:52 33.95664 -118.35806 902 ft 141 kts 264°
2026-04-26 12:52 33.95540 -118.36978 671 ft 140 kts 264°
2026-04-26 12:53 33.95424 -118.38139 490 ft 140 kts 264°
2026-04-26 12:53 33.95300 -118.39309 325 ft 139 kts 264°
2026-04-26 12:53 33.95183 -118.40453 140 ft 136 kts 264°
2026-04-26 12:53 33.95084 -118.41441 134 ft 97 kts 263°
2026-04-26 12:54 33.95023 -118.42036 132 ft 39 kts 263°
2026-04-26 12:54 33.94996 -118.42300 132 ft 28 kts 263°
2026-04-26 12:54 33.94950 -118.42514 130 ft 24 kts 248°
2026-04-26 12:54 33.94880 -118.42643 128 ft 13 kts 230°
2026-04-26 12:55 33.94808 -118.42726 127 ft 14 kts 218°
2026-04-26 12:55 33.94712 -118.42781 125 ft 15 kts 189°
2026-04-26 12:55 33.94598 -118.42773 123 ft 17 kts 174°
2026-04-26 12:55 33.94469 -118.42754 120 ft 19 kts 173°
2026-04-26 12:56 33.94333 -118.42735 117 ft 20 kts 173°
2026-04-26 12:56 33.94191 -118.42713 116 ft 20 kts 173°
2026-04-26 12:56 33.94052 -118.42693 118 ft 18 kts 173°
2026-04-26 12:56 33.93926 -118.42674 119 ft 18 kts 173°
2026-04-26 12:57 33.93799 -118.42655 118 ft 17 kts 173°
2026-04-26 12:57 33.93714 -118.42635 117 ft 10 kts 146°
2026-04-26 12:57 33.93698 -118.42553 118 ft 10 kts 82°
2026-04-26 12:58 33.93721 -118.42335 124 ft 17 kts 83°
2026-04-26 12:58 33.93731 -118.42247 127 ft 20 kts 83°
2026-04-26 12:58 33.93742 -118.42142 128 ft 23 kts 83°
2026-04-26 12:58 33.93763 -118.41935 132 ft 24 kts 83°
2026-04-26 12:59 33.93783 -118.41743 136 ft 22 kts 83°
2026-04-26 12:59 33.93801 -118.41563 137 ft 21 kts 84°
2026-04-26 12:59 33.93819 -118.41391 138 ft 20 kts 83°
2026-04-26 12:59 33.93836 -118.41228 139 ft 18 kts 83°
2026-04-26 13:00 33.93851 -118.41075 141 ft 17 kts 83°
2026-04-26 13:00 33.93866 -118.40932 141 ft 14 kts 83°
2026-04-26 13:00 33.93877 -118.40836 141 ft 8 kts 69°
2026-04-26 13:00 33.93938 -118.40811 139 ft 11 kts 352°
2026-04-26 13:01 33.93956 -118.40814 139 ft 11 kts 352°
2026-04-26 13:01 33.93996 -118.40821 139 ft 12 kts 353°
2026-04-26 13:01 33.94059 -118.40827 138 ft 5 kts 13°
2026-04-26 13:02 33.94084 -118.40800 138 ft 4 kts 59°
2026-04-26 13:02 33.94096 -118.40768 138 ft 2 kts 69°
2026-04-26 13:02 33.94101 -118.40750 138 ft 1 kts 69°
2026-04-26 13:02 33.94103 -118.40746 138 ft 0 kts 69°